Location: Champs
(48.8539°N, 2.6040°E)
Time: 18:20:56
(UTC+00:00)

Cosmos 2056 Rocket - Pass Details

Date: 30 May 2022
Orbit: 741 x 801 km, 74.0° (Epoch: 01 July)

Event Time Altitude Azimuth Distance (km) Brightness Sun altitude
Exits shadow 01:12:23 - 139° (SE) 2,871 6.2 -16.9°
Reaches altitude 10° 01:14:55 10° 118° (ESE) 2,296 5.9 -16.7°
Maximum altitude 01:17:11 13° 92° (E) 2,110 6.0 -16.6°
Drops below altitude 10° 01:19:28 10° 66° (ENE) 2,322 6.7 -16.5°
Sets 01:23:12 0° 40° (NE) 3,271 8.3 -16.2°
